Dewpoint
74 74 75 75 76 76 75 75 75 75 76 75 75 74 73 73 73 73 74 73 73 73 72 72 73 73 72 71 72 72 72 72 72 72 72 71 72 71 73 73 73 73 73 73 73 73 74 74 74 73 73 72 73 73 72 73 73 73 72 72 71 72 72 73 73 73 73 73 72 72 71 71 72 72 72 72 72 72 72 71 71 71 71 71 71
74 76 75 76 76 77 76 75 75 75 75 75 74 74 73 73 73 73 73 73 73 73 73 72 71 70 72 71 71 71 72 72 72 72 72 72 72 71 73 73 73 74 74 73 74 74 74 74 74 74 73 72 73 73 73 72 72 73 73 72 72 72 72 72 72 73 73 73 73 73 72 72 72 72 72 72 72 72 72 72 72 72 72 72 72
75 76 75 75 76 76 76 76 75 76 75 75 75 74 73 72 73 72 73 73 72 71 72 72 71 70 71 71 71 71 71 72 70 71 70 71 71 72 73 73 73 73 73 74 73 73 73 73 73 73 73 72 73 73 73 73 73 73 73 73 72 72 72 72 73 73 73 73 73 73 73 72 72 72 72 72 72 72 73 73 72 72 72 72 72
77 76 76 76 76 75 76 75 75 74 75 74 74 74 73 72 73 73 73 73 72 71 72 71 70 70 71 71 71 70 70 70 70 70 70 71 71 72 72 71 72 73 73 73 73 73 74 73 73 72 72 72 73 73 73 73 73 73 72 73 72 72 72 72 73 73 73 73 73 73 73 73 73 72 72 72 72 73 73 73 73 73 73 73 73
76 76 75 75 74 75 74 75 74 74 75 75 74 73 73 73 73 74 72 72 71 71 71 70 70 70 71 70 71 70 70 70 70 69 68 69 70 70 71 71 71 71 73 73 73 73 73 74 72 72 72 73 72 72 73 73 73 73 73 73 73 73 72 72 73 73 73 73 73 73 73 73 73 73 73 72 73 73 73 73 73 73 73 73 73
76 75 75 76 75 74 73 73 73 74 74 75 75 74 73 73 72 72 71 71 70 70 70 70 70 70 69 69 70 70 69 68 68 68 68 68 69 71 70 70 71 71 72 73 73 73 73 73 72 72 73 72 71 71 72 73 73 73 73 73 73 73 73 73 73 73 73 73 73 73 74 73 73 74 74 73 73 73 73 73 73 73 73 73 73
76 76 75 74 75 74 74 74 73 73 74 74 74 73 72 72 71 70 71 69 69 69 69 69 69 70 70 70 69 69 69 68 69 69 69 70 71 69 71 71 70 71 71 70 73 73 73 73 73 72 72 72 72 72 72 73 73 73 73 73 73 73 74 73 72 73 73 73 73 73 74 74 74 74 74 74 74 73 73 73 73 73 73 73 73
76 76 75 74 73 74 75 74 73 73 73 74 73 72 72 71 71 71 69 68 69 68 69 68 68 69 70 70 69 70 69 69 69 69 67 70 70 70 70 71 72 71 71 71 71 73 73 73 73 73 73 73 72 72 72 72 73 73 73 74 73 73 73 73 74 73 72 72 73 73 73 73 73 73 74 74 74 74 74 74 74 74 73 73 74
76 75 76 76 75 74 74 73 73 73 73 73 72 71 71 69 71 71 70 69 67 68 68 68 68 68 69 69 69 69 69 69 69 69 70 70 70 69 70 71 71 70 72 70 72 73 73 73 73 73 73 73 73 72 72 72 73 73 73 73 73 73 73 73 74 74 74 73 72 72 73 73 73 73 73 74 74 74 74 74 74 74 74 74 74
75 75 76 75 74 73 74 74 73 73 73 72 72 72 71 70 70 71 70 70 68 68 68 67 67 68 69 68 70 69 68 68 69 69 68 69 70 70 70 70 70 70 69 70 71 73 73 73 73 73 73 72 72 72 73 72 73 73 73 73 73 74 74 73 73 73 73 72 73 72 72 73 73 73 74 73 73 74 74 74 74 74 74 74 74
74 75 74 73 73 73 74 73 74 74 72 72 71 71 71 71 70 70 71 70 69 69 69 69 68 68 68 68 69 70 69 68 69 67 67 66 68 70 67 70 70 71 71 70 70 72 72 73 74 75 74 73 73 73 73 73 73 73 73 73 74 73 73 73 73 72 72 72 73 73 72 71 73 73 73 73 74 74 74 74 74 74 74 74 74
75 75 75 74 74 73 73 73 73 72 72 71 71 71 71 71 71 70 70 69 69 69 69 69 68 68 69 69 69 69 69 68 68 66 67 66 68 68 67 68 69 69 69 70 70 70 71 72 73 73 73 73 73 72 72 72 72 72 73 73 73 73 73 72 72 72 72 73 73 73 72 71 72 73 73 73 73 74 74 74 74 74 74 74 74
74 75 74 74 74 73 73 72 72 72 72 72 72 72 71 71 70 71 69 68 68 69 69 68 67 66 68 67 67 68 68 68 66 65 64 64 65 66 66 66 67 68 70 71 71 70 70 72 72 73 73 74 74 73 73 73 73 73 73 74 73 73 72 72 72 72 72 73 72 73 73 72 72 73 73 73 73 72 74 74 74 74 74 75 75
75 75 75 74 74 72 72 73 72 73 73 72 72 72 71 71 70 69 70 68 67 67 68 68 64 63 64 64 64 67 68 67 63 63 62 63 64 65 65 62 63 65 67 68 69 69 69 70 71 71 72 73 73 73 74 74 73 73 73 73 72 72 72 72 72 72 72 72 72 73 72 72 72 72 73 73 73 73 73 74 74 74 74 74 74
75 75 75 74 73 73 73 73 73 72 72 71 72 71 71 70 70 68 67 68 67 68 68 67 63 64 65 65 61 63 65 65 63 63 61 61 62 61 61 60 65 67 68 67 66 67 66 67 68 69 70 70 70 71 72 71 71 72 72 72 72 71 71 72 72 72 73 73 72 73 72 72 72 72 72 72 72 73 73 73 74 74 74 74 74
74 75 75 74 73 73 73 73 73 72 72 71 71 71 71 70 69 69 68 66 67 66 68 68 67 65 61 61 61 60 58 63 63 64 61 60 59 59 61 62 66 68 67 64 65 65 66 67 68 69 70 70 70 70 70 70 70 71 71 71 71 72 72 71 71 72 73 73 72 72 72 72 72 71 72 73 73 73 73 74 74 74 74 74 74
75 75 74 73 74 73 73 72 72 72 72 71 71 70 70 70 69 68 67 67 65 66 66 68 68 68 65 62 60 59 58 60 59 63 60 59 57 57 64 62 65 66 64 65 67 66 66 66 68 68 69 69 70 69 70 70 70 71 71 70 71 71 72 72 72 72 72 72 72 72 72 72 72 72 72 72 72 72 73 74 74 74 74 74 74
75 75 74 74 74 73 73 72 72 73 73 71 71 71 71 71 70 69 68 67 67 66 65 67 67 68 68 67 66 61 61 61 61 60 65 64 64 64 64 61 65 62 64 63 64 65 63 63 66 66 67 68 67 68 68 68 69 70 70 71 70 70 71 71 72 72 72 72 72 73 72 72 72 72 72 72 73 73 73 73 73 73 73 74 74
74 74 74 74 74 74 73 72 72 72 72 72 71 70 70 70 70 69 68 69 68 66 65 64 67 67 67 67 67 65 65 63 59 61 60 62 60 59 63 63 61 61 59 60 58 59 60 63 63 63 64 63 63 64 64 64 64 66 67 65 65 66 66 66 67 68 69 71 71 72 72 72 72 72 72 73 73 73 73 73 73 73 73 73 74
74 74 74 74 73 73 72 71 70 70 71 70 69 70 71 71 70 69 69 69 67 66 65 65 64 64 66 65 65 66 66 65 65 62 61 59 60 60 61 56 57 53 57 59 55 59 58 61 58 61 62 61 60 60 62 63 63 64 64 64 64 65 64 64 65 66 67 68 69 70 71 71 72 72 73 73 73 73 73 73 73 73 73 73 73
74 73 73 72 72 71 72 70 69 69 71 69 69 71 71 70 70 69 69 68 68 67 66 65 65 64 65 65 65 65 64 64 64 64 61 60 58 56 58 59 60 55 54 56 59 59 61 61 60 60 62 60 60 61 59 61 62 63 62 64 64 63 63 63 64 65 65 65 66 67 68 69 70 72 72 72 72 72 72 72 72 73 73 73 74
74 73 73 72 70 71 70 69 69 68 69 68 69 70 70 70 71 71 71 69 69 68 67 66 67 67 66 65 64 63 63 63 63 61 62 62 58 57 58 58 57 58 56 52 57 57 59 58 59 59 59 60 59 59 60 60 61 60 62 63 63 63 62 62 63 63 64 64 65 65 65 66 67 69 71 72 72 72 72 72 72 72 73 73 73
72 73 71 71 71 71 66 67 67 69 70 68 67 65 65 66 68 71 70 69 68 69 69 68 67 67 67 66 64 63 62 60 60 61 61 61 59 56 54 53 55 56 60 58 60 58 59 60 60 59 61 59 59 59 60 60 59 60 62 61 62 62 62 62 62 62 62 63 63 64 64 65 66 66 67 68 70 71 72 72 72 72 72 73 73
71 70 70 68 72 71 71 70 71 70 69 68 67 66 64 65 67 68 67 68 68 68 68 66 66 66 66 64 64 63 63 62 61 63 62 61 60 59 58 60 59 58 59 62 60 60 58 56 58 57 60 60 60 60 60 62 61 61 61 61 62 62 62 62 62 62 62 62 62 63 63 64 65 65 66 66 67 68 70 72 72 72 72 72 72
70 69 69 70 71 72 71 71 70 70 69 69 68 68 67 66 67 66 66 66 66 66 66 65 65 64 63 63 63 63 62 63 63 62 62 62 62 60 57 58 57 56 60 60 55 58 57 58 58 57 59 61 60 62 62 61 60 60 62 60 62 62 62 62 62 62 62 62 62 63 63 63 63 64 64 65 66 66 67 68 71 72 72 72 72
69 69 68 69 71 71 71 71 71 70 70 70 69 68 68 67 67 66 65 66 66 66 66 65 65 65 65 63 63 62 62 62 62 63 61 61 61 60 60 60 60 56 58 59 61 53 54 57 58 62 60 61 60 61 62 59 60 60 61 61 63 63 62 62 62 62 62 62 62 63 63 63 63 63 63 63 64 65 65 66 67 69 71 72 72
69 69 70 71 71 71 71 70 70 70 70 70 69 69 69 68 68 67 66 66 66 66 65 65 64 64 65 64 63 62 62 63 61 62 62 62 62 61 61 59 56 56 56 57 58 57 51 55 56 55 61 63 61 62 62 61 60 60 62 62 62 63 63 63 62 61 61 62 62 63 62 62 62 62 63 63 63 64 64 65 66 67 68 69 70
70 70 70 70 71 71 71 70 70 69 70 70 69 68 69 68 68 68 67 67 67 67 66 65 64 64 64 65 65 62 62 62 62 62 62 62 62 62 61 61 58 55 55 55 54 55 56 54 56 57 58 60 62 62 61 59 60 60 62 62 63 63 63 63 62 61 61 62 62 62 62 62 62 62 62 63 63 63 63 64 64 65 66 67 68
69 69 69 70 71 70 70 69 70 69 70 70 69 69 69 68 67 68 67 66 67 67 65 65 65 62 64 64 64 64 64 65 64 63 64 64 63 63 62 61 59 58 56 55 56 54 56 51 51 57 59 60 61 60 61 61 60 61 61 62 63 64 63 62 61 61 61 62 62 61 61 62 62 62 62 62 63 63 63 63 64 64 64 65 67
68 68 69 69 70 70 69 69 69 69 68 68 69 69 69 68 68 67 67 67 67 67 67 66 65 65 65 65 64 64 64 65 63 63 64 65 63 63 63 63 62 59 58 56 56 57 56 57 54 55 61 62 60 60 61 61 60 62 62 63 63 63 62 62 61 61 62 62 61 60 61 61 61 62 61 61 62 62 63 63 63 64 64 65 66
69 69 69 68 69 69 69 68 69 69 69 68 69 69 69 68 68 67 67 68 67 67 67 68 66 66 66 65 66 65 65 64 65 63 65 65 64 64 63 63 63 62 59 58 56 58 59 57 57 57 57 59 57 59 60 61 61 62 61 62 63 62 63 62 62 62 61 60 60 60 60 60 60 60 60 60 61 62 62 63 63 64 64 64 65
68 69 69 68 68 67 67 66 66 67 68 68 68 68 69 68 67 65 65 68 67 67 65 65 66 67 67 66 65 65 65 65 65 65 65 66 66 65 64 64 63 63 63 59 58 57 59 58 59 60 59 60 60 60 62 61 62 62 62 62 63 62 63 63 62 62 61 60 60 59 59 59 59 60 60 60 60 61 62 62 62 62 63 64 64
68 68 69 69 68 68 67 67 66 67 68 67 68 68 68 68 68 67 66 68 67 66 67 66 67 67 67 66 66 66 67 66 65 64 64 65 66 65 64 64 62 62 62 61 58 58 59 60 60 59 60 61 60 61 61 61 62 62 63 63 64 63 63 63 62 62 61 60 59 59 59 59 59 59 59 60 60 61 61 62 62 62 62 62 63
68 67 68 68 68 68 67 68 68 68 68 68 67 67 67 67 67 67 66 67 67 66 67 67 67 67 67 67 66 66 67 67 65 64 64 63 63 63 63 62 61 61 63 60 59 58 58 60 60 61 59 60 59 62 61 61 61 62 62 62 62 63 63 63 62 61 61 60 59 58 58 58 58 59 59 59 60 60 60 60 60 60 60 60 61
68 68 67 67 68 68 68 68 68 68 68 68 68 67 67 67 67 66 66 66 66 66 66 66 66 66 66 67 66 65 66 66 66 65 64 64 64 63 63 63 63 62 63 63 62 59 58 58 59 59 60 60 59 60 61 61 62 62 61 61 62 62 62 62 62 61 61 60 59 58 58 58 58 58 58 59 58 58 58 58 58 58 58 58 59
66 67 67 67 67 67 67 67 67 67 68 68 68 67 67 67 67 66 67 67 66 66 65 65 65 66 66 66 65 65 66 66 66 65 65 65 65 65 65 65 65 64 64 64 62 60 59 57 59 59 60 60 59 60 60 61 59 60 60 61 61 62 62 61 62 62 61 60 59 58 58 58 57 57 57 57 57 56 56 55 56 57 57 57 57
66 66 66 66 66 66 66 66 67 67 67 67 67 66 66 67 67 66 66 67 66 66 66 66 66 66 66 65 64 65 66 66 65 65 65 66 66 65 64 65 64 64 64 64 64 64 61 58 58 59 60 60 60 60 60 60 59 60 60 60 61 61 62 61 60 61 60 59 59 59 58 58 58 58 57 57 57 56 56 56 56 56 56 56 57
65 65 66 65 66 66 65 66 66 66 67 67 67 67 66 66 67 66 66 66 66 67 67 66 66 67 66 65 65 66 66 65 64 64 65 66 66 65 65 65 64 64 64 64 65 64 63 60 60 57 59 58 59 59 60 60 58 57 58 59 60 60 60 59 57 58 58 59 60 59 59 59 59 58 58 57 57 56 56 56 55 55 55 55 54
63 64 64 65 66 65 66 65 65 66 66 66 67 67 67 67 67 66 66 67 67 67 67 65 64 65 65 65 66 66 66 66 65 65 65 66 65 65 65 65 65 64 64 64 64 64 63 61 60 59 58 59 59 57 58 59 59 58 56 55 55 56 58 58 56 57 58 58 59 60 58 57 57 56 54 55 55 56 56 56 55 54 54 54 53
64 64 64 65 65 65 65 65 66 66 66 66 67 67 67 67 66 66 67 67 67 67 67 66 65 64 65 65 63 65 66 66 66 66 66 66 66 65 65 66 65 65 64 64 64 62 62 61 60 58 58 58 57 58 57 57 56 56 56 56 55 56 56 57 58 57 56 57 58 57 57 57 57 57 57 57 57 57 56 56 57 57 56 55 54
65 65 65 65 64 64 65 65 65 65 65 65 66 67 66 66 66 66 67 67 66 66 65 65 65 66 66 65 64 64 66 67 66 65 65 65 65 65 66 66 66 65 64 64 63 62 61 60 59 60 58 56 56 56 55 56 55 55 56 57 57 57 57 56 57 58 56 55 56 56 56 56 55 55 56 57 57 57 56 58 57 59 58 56 56
65 66 65 65 64 64 65 65 65 65 65 66 65 62 63 66 67 67 67 67 66 65 65 65 64 65 65 64 65 66 65 64 64 63 62 61 61 63 64 65 64 64 64 63 62 61 60 59 58 59 57 54 54 56 55 56 57 57 56 57 56 56 56 56 56 56 57 56 55 55 55 56 55 55 54 54 55 57 56 55 55 54 55 56 57
66 66 66 65 63 63 63 63 64 65 65 65 62 61 61 63 65 66 66 66 66 66 65 65 65 64 64 66 66 66 66 65 65 64 63 62 61 60 60 60 60 63 61 61 62 62 60 59 58 59 58 56 56 56 56 55 55 56 56 56 56 56 55 54 53 54 57 56 55 54 55 56 55 54 55 55 55 56 55 55 56 57 56 56 57
66 65 65 65 65 64 64 63 63 64 64 63 60 60 61 61 63 65 65 65 65 65 65 65 65 65 64 64 64 66 66 65 65 65 65 64 62 61 60 59 59 59 59 62 62 61 61 59 58 59 60 57 58 58 56 54 56 56 57 57 56 56 55 54 54 54 56 57 56 56 53 56 56 55 55 56 56 56 56 56 56 56 56 56 56
65 65 64 64 64 64 64 64 63 63 62 62 59 59 60 60 60 63 65 66 66 65 66 66 66 66 66 65 65 65 66 65 63 64 65 64 63 61 60 60 59 58 58 58 58 61 62 61 60 59 58 60 60 59 57 58 58 57 57 55 56 55 56 55 54 54 55 57 56 55 53 54 55 55 54 55 55 55 54 56 57 57 57 56 57
63 64 64 64 64 64 64 64 63 63 63 61 58 58 58 58 59 61 65 66 66 65 65 66 66 65 65 65 66 65 64 65 65 64 63 63 62 62 62 62 61 60 61 58 57 57 59 59 61 60 61 61 60 59 58 59 58 56 55 55 56 55 55 55 57 56 57 57 56 54 53 54 55 54 53 53 54 54 56 55 56 56 56 56 57
64 65 64 65 64 64 64 63 63 63 62 60 58 57 57 57 58 61 65 66 66 66 66 65 66 65 66 66 65 63 63 63 63 63 63 62 61 60 60 60 60 59 60 59 60 60 61 60 60 59 60 59 59 58 58 58 58 57 56 56 56 56 55 56 56 56 56 56 56 57 54 53 54 53 53 53 53 53 54 54 55 56 56 56 56
63 64 65 64 64 64 64 64 62 62 61 58 57 57 56 56 58 64 65 66 66 65 65 65 65 66 65 64 63 63 63 63 62 60 61 62 60 60 60 60 60 59 58 61 59 60 60 60 59 58 56 56 54 57 57 55 55 56 55 55 55 55 55 54 53 52 52 53 54 53 52 52 54 52 52 53 53 54 55 55 55 55 55 56 56
61 63 63 63 64 64 63 64 64 64 64 61 56 56 56 56 58 65 66 65 65 65 64 65 64 63 63 63 63 63 63 62 61 57 57 59 60 60 60 60 59 57 57 60 59 56 56 54 53 54 53 53 53 52 51 52 55 55 55 54 53 53 53 53 52 52 52 51 51 53 52 53 54 53 53 53 54 54 54 55 56 55 56 55 56
61 61 63 64 64 65 64 64 62 64 63 61 55 54 55 55 60 65 66 65 64 64 63 64 63 63 63 62 62 63 62 61 55 56 55 57 59 59 58 58 57 57 57 58 57 58 55 53 52 52 52 53 53 52 52 52 52 52 56 53 53 53 54 54 53 52 52 52 53 53 55 55 54 54 54 54 54 55 56 56 57 57 56 55 55
62 64 64 64 64 65 63 62 64 62 63 60 54 54 54 54 60 64 65 62 62 62 62 63 63 63 64 62 62 61 60 60 52 54 54 56 58 59 59 58 58 57 58 58 57 56 57 56 57 57 59 56 59 59 58 54 53 54 56 55 55 56 54 54 53 53 52 52 54 56 55 55 54 54 55 54 53 54 56 57 57 57 58 58 59